GFSNE_prec_kuchsnow_102.txt.gz
Snowfall_Accumulation
0.0 0.0 0.0 0.0 0.0 0.0 0.0 0.0 2.4 3.9 0.4 0.0 0.0 0.0 0.0 0.0 0.0 0.0 0.0 0.0 0.0 0.0 0.0 0.0 0.0 0.0 0.0 0.0 0.0 0.0 0.0 0.0 0.0 0.0 0.0 0.0 0.0 0.0
0.0 0.0 0.0 0.0 0.0 0.0 0.0 0.0 0.2 0.8 0.8 0.0 0.0 0.0 0.0 0.0 0.0 0.0 0.0 0.0 0.0 0.0 0.0 0.0 0.0 0.0 0.0 0.0 0.0 0.0 0.0 0.0 0.0 0.0 0.0 0.0 0.0 0.0
0.0 0.0 0.0 0.0 0.0 0.0 0.0 0.0 0.0 0.0 0.2 0.0 0.0 0.0 0.0 0.0 0.0 0.0 0.0 0.0 0.0 0.0 0.0 0.0 0.0 0.0 0.0 0.0 0.0 0.0 0.0 0.0 0.0 0.0 0.0 0.0 0.0 0.0
0.0 0.0 0.0 0.0 0.0 0.0 0.0 0.0 0.0 0.0 0.0 0.0 0.0 0.0 0.0 0.0 0.0 0.0 0.0 0.0 0.0 0.0 0.0 0.0 0.0 0.0 0.0 0.0 0.0 0.0 0.0 0.0 0.0 0.0 0.0 0.0 0.0 0.0
0.0 0.0 0.0 0.0 0.0 0.0 0.0 0.0 0.0 0.0 0.0 0.2 0.1 0.0 0.0 0.0 0.0 0.0 0.0 0.0 0.0 0.0 0.0 0.0 0.0 0.0 0.0 0.0 0.0 0.0 0.0 0.0 0.0 0.0 0.0 0.0 0.0 0.0
0.0 0.0 0.0 0.0 0.0 0.0 0.0 0.0 0.0 0.1 0.1 0.2 0.1 0.2 0.1 0.0 0.0 0.1 0.0 0.0 0.0 0.0 0.0 0.0 0.0 0.0 0.0 0.0 0.0 0.0 0.0 0.0 0.0 0.0 0.0 0.0 0.0 0.0
0.0 0.0 0.0 0.0 0.0 0.0 0.0 0.1 0.1 0.5 0.6 0.6 0.4 0.2 0.1 0.0 0.2 0.2 0.4 0.1 0.0 0.0 0.0 0.0 0.0 0.0 0.0 0.0 0.0 0.0 0.0 0.0 0.0 0.0 0.0 0.0 0.0 0.0
0.0 0.0 0.0 0.0 0.0 0.0 0.0 0.1 0.2 1.0 1.5 1.2 0.4 0.5 0.2 0.4 0.4 0.4 0.4 0.5 0.5 0.0 0.2 0.1 0.0 0.0 0.0 0.4 0.0 0.1 0.0 0.0 0.1 0.0 0.0 0.0 0.0 0.2
0.0 0.0 0.0 0.0 0.0 0.0 0.0 0.0 0.0 0.1 0.8 1.0 1.5 0.6 0.7 0.3 0.3 0.2 0.8 1.8 1.4 0.0 0.1 0.3 0.0 0.1 0.0 0.0 0.0 0.0 0.0 0.0 0.0 0.0 0.0 0.0 0.0 0.0
0.0 0.0 0.0 0.0 0.0 0.1 1.1 0.2 0.1 0.0 0.0 0.1 0.3 0.1 0.0 0.1 0.1 0.3 0.9 1.4 0.1 0.6 0.4 1.6 0.8 0.8 0.4 0.0 0.0 0.0 0.0 0.0 0.0 0.0 0.0 0.0 0.1 0.0
0.0 0.0 0.0 0.0 0.1 0.7 0.6 0.5 0.1 0.0 0.0 0.0 0.9 0.5 0.6 0.2 1.4 2.2 1.8 3.4 2.8 0.9 0.5 1.3 0.7 0.8 0.4 1.2 0.7 0.3 0.1 0.6 0.7 0.4 0.7 2.0 2.3 2.6
0.1 0.0 0.0 0.2 1.3 1.0 1.5 1.1 1.1 0.3 1.0 1.1 0.7 0.3 1.3 0.9 0.8 1.0 1.4 4.4 3.8 3.1 1.1 2.3 0.5 2.3 6.4 6.8 6.7 5.8 5.2 4.1 3.9 3.0 2.9 2.9 2.7 2.4
0.1 0.1 0.1 2.0 1.5 1.1 0.8 1.1 1.6 1.7 1.1 0.8 0.6 1.3 1.0 1.1 1.0 0.5 1.1 2.8 4.6 2.9 3.7 10.8 14.6 13.2 15.3 13.8 8.8 7.0 5.6 5.2 4.1 3.1 2.5 2.0 1.7 1.6
0.8 1.0 2.7 1.6 0.8 0.5 2.0 2.4 1.4 1.3 2.0 2.4 2.4 2.7 7.6 5.2 5.6 6.8 7.6 7.9 8.7 10.7 11.6 10.8 15.0 11.8 11.6 11.3 8.8 5.7 4.4 3.5 3.5 3.4 3.6 2.6 1.6 0.4
2.1 2.2 1.8 0.9 2.1 2.4 2.7 2.0 1.9 4.0 4.5 7.6 14.9 15.3 17.9 16.3 14.4 12.7 10.2 9.2 8.7 8.4 7.8 7.9 8.2 7.8 8.0 8.9 6.8 5.0 3.9 2.3 1.6 1.6 3.1 2.5 3.2 2.3
1.0 1.5 2.2 1.8 1.6 6.1 7.4 4.2 7.4 15.2 16.8 20.3 19.5 19.6 16.3 14.6 14.3 12.9 11.1 10.9 11.1 8.5 5.8 5.0 4.0 4.6 5.3 3.2 3.2 2.1 1.1 2.0 0.2 0.7 2.3 4.6 4.6 4.6
4.4 10.8 16.3 11.8 14.6 16.3 17.6 17.7 17.4 17.6 18.4 17.4 16.7 16.0 14.0 13.0 11.5 9.1 8.6 7.2 7.8 4.4 2.6 1.8 1.4 2.1 1.3 1.7 2.4 0.5 0.5 0.4 0.3 2.5 1.7 4.4 4.8 5.7
16.9 18.5 18.9 18.5 17.3 16.5 16.1 15.3 13.0 12.1 10.5 9.3 8.2 7.2 7.0 6.1 5.5 3.6 3.3 4.6 4.0 2.6 1.9 1.7 3.5 3.1 3.0 1.6 0.9 1.7 0.6 0.4 0.2 0.3 0.8 4.5 5.5 7.4
14.2 11.6 14.5 13.5 11.7 9.9 9.0 8.4 8.2 6.8 4.0 4.8 4.9 3.8 2.1 1.7 2.1 1.5 1.2 0.8 1.1 0.7 0.5 1.4 2.1 4.2 6.2 5.1 1.9 0.2 2.6 0.7 0.5 0.6 0.1 2.3 5.5 5.0
7.4 7.1 7.6 6.3 5.0 4.5 4.5 4.1 3.9 2.5 2.1 1.2 1.7 1.5 1.9 2.3 2.1 1.3 1.0 2.1 1.5 0.5 0.4 0.3 0.4 1.3 6.2 9.5 8.0 0.9 0.6 5.1 1.8 1.0 0.8 1.6 1.0 2.5
5.5 5.3 4.5 4.5 4.6 4.3 3.4 3.2 3.6 3.7 1.5 4.3 3.6 4.5 4.9 5.2 4.1 2.5 4.3 3.5 3.3 3.0 1.9 0.5 0.1 1.1 1.9 2.7 6.2 2.7 0.7 0.4 1.0 1.0 2.4 3.5 1.4 3.0
4.9 4.7 3.1 3.6 2.9 2.7 3.1 3.0 3.1 2.9 3.3 3.2 3.2 2.1 2.7 2.6 3.2 2.1 2.4 2.6 2.1 2.1 1.1 0.5 0.4 1.2 2.0 2.6 2.9 2.9 0.8 1.2 0.1 0.2 1.5 3.0 5.5 8.4
3.2 2.4 2.5 2.6 2.2 2.1 2.3 2.4 2.2 2.0 2.4 2.9 2.9 2.5 2.3 3.1 2.3 2.3 1.9 1.7 2.1 1.5 1.2 1.9 1.8 1.7 1.7 1.1 1.3 3.2 1.3 2.0 0.4 1.9 1.4 0.9 2.4 1.3

GFSNE_prec_kuchsnow_105.txt.gz
Snowfall_Accumulation
0.0 0.0 0.0 0.0 0.0 0.0 0.0 0.0 2.4 3.9 0.4 0.0 0.0 0.0 0.0 0.0 0.0 0.0 0.0 0.0 0.0 0.0 0.0 0.0 0.0 0.0 0.0 0.0 0.0 0.0 0.0 0.0 0.0 0.0 0.0 0.0 0.0 0.0
0.0 0.0 0.0 0.0 0.0 0.0 0.0 0.0 0.2 0.8 0.8 0.0 0.0 0.0 0.0 0.0 0.0 0.0 0.0 0.0 0.0 0.0 0.0 0.0 0.0 0.0 0.0 0.0 0.0 0.0 0.0 0.0 0.0 0.0 0.0 0.0 0.0 0.0
0.0 0.0 0.0 0.0 0.0 0.0 0.0 0.0 0.0 0.0 0.2 0.0 0.0 0.0 0.0 0.0 0.0 0.0 0.0 0.0 0.0 0.0 0.0 0.0 0.0 0.0 0.0 0.0 0.0 0.0 0.0 0.0 0.0 0.0 0.0 0.0 0.0 0.0
0.0 0.0 0.0 0.0 0.0 0.0 0.0 0.0 0.0 0.0 0.0 0.0 0.0 0.0 0.0 0.0 0.0 0.0 0.0 0.0 0.0 0.0 0.0 0.0 0.0 0.0 0.0 0.0 0.0 0.0 0.0 0.0 0.0 0.0 0.0 0.0 0.0 0.0
0.0 0.0 0.0 0.0 0.0 0.0 0.0 0.0 0.0 0.0 0.0 0.2 0.1 0.0 0.0 0.0 0.0 0.0 0.0 0.0 0.0 0.0 0.0 0.0 0.0 0.0 0.0 0.0 0.0 0.0 0.0 0.0 0.0 0.0 0.0 0.0 0.0 0.0
0.0 0.0 0.0 0.0 0.0 0.0 0.0 0.0 0.0 0.1 0.1 0.2 0.1 0.2 0.1 0.0 0.0 0.1 0.0 0.0 0.0 0.0 0.0 0.0 0.0 0.0 0.0 0.0 0.0 0.0 0.0 0.0 0.0 0.0 0.0 0.0 0.0 0.0
0.0 0.0 0.0 0.0 0.0 0.0 0.0 0.1 0.1 0.5 0.6 0.6 0.4 0.2 0.1 0.0 0.2 0.2 0.4 0.1 0.0 0.0 0.0 0.0 0.0 0.0 0.0 0.0 0.0 0.0 0.0 0.0 0.0 0.0 0.0 0.0 0.0 0.0
0.0 0.0 0.0 0.0 0.0 0.0 0.0 0.1 0.2 1.0 1.5 1.2 0.4 0.5 0.2 0.4 0.4 0.4 0.4 0.5 0.5 0.0 0.2 0.1 0.0 0.0 0.0 0.4 0.0 0.1 0.0 0.0 0.1 0.0 0.0 0.0 0.0 0.2
0.0 0.0 0.0 0.0 0.0 0.0 0.0 0.0 0.0 0.1 0.8 1.0 1.5 0.6 0.7 0.3 0.3 0.2 0.8 1.8 1.4 0.0 0.1 0.3 0.0 0.1 0.0 0.0 0.0 0.0 0.0 0.0 0.0 0.0 0.0 0.0 0.0 0.0
0.0 0.0 0.0 0.0 0.0 0.1 1.1 0.2 0.1 0.0 0.0 0.1 0.3 0.1 0.0 0.1 0.1 0.3 0.9 1.4 0.1 0.6 0.4 1.6 0.8 0.8 0.4 0.0 0.0 0.0 0.0 0.0 0.0 0.0 0.0 0.0 0.1 0.0
0.0 0.0 0.0 0.0 0.1 0.7 0.6 0.5 0.1 0.0 0.0 0.0 0.9 0.5 0.6 0.2 1.4 2.2 1.8 3.4 2.8 0.9 0.5 1.3 0.7 0.8 0.4 1.2 0.7 0.3 0.1 0.6 0.7 0.4 0.7 2.0 2.3 2.6
0.1 0.0 0.0 0.2 1.3 1.0 1.5 1.1 1.1 0.3 1.0 1.1 0.7 0.3 1.3 0.9 0.8 1.0 1.4 4.4 3.8 3.1 1.1 2.3 0.5 2.3 6.4 6.8 6.7 5.8 5.2 4.1 3.9 3.0 2.9 2.9 2.7 2.4
0.1 0.1 0.1 2.0 1.5 1.1 0.8 1.1 1.6 1.7 1.1 0.8 0.6 1.3 1.0 1.1 1.0 0.5 1.1 2.8 4.6 2.9 3.7 10.8 14.6 13.2 15.3 13.8 8.8 7.0 5.6 5.2 4.1 3.1 2.5 2.0 1.7 1.6
0.8 1.0 2.7 1.6 0.8 0.5 2.0 2.4 1.4 1.3 2.0 2.4 2.4 2.7 7.6 5.2 5.6 6.8 7.6 7.9 8.7 10.7 11.6 10.8 15.0 11.8 11.6 11.4 8.8 5.7 4.4 3.5 3.5 3.4 3.6 2.6 1.6 0.4
2.4 2.2 1.8 1.0 2.1 2.4 2.7 2.0 1.9 4.0 4.5 7.6 14.9 15.3 17.9 16.3 14.4 12.7 10.2 9.2 8.7 8.4 7.8 7.9 8.2 7.8 8.0 8.9 6.8 5.0 3.9 2.3 1.6 1.6 3.1 2.5 3.2 2.3
1.0 1.5 2.2 1.8 1.6 6.1 7.4 4.2 7.4 15.2 16.8 20.3 19.5 19.6 16.3 14.6 14.3 12.9 11.1 10.9 11.1 8.5 5.8 5.0 4.0 4.6 5.3 3.2 3.2 2.1 1.1 2.0 0.2 0.7 2.3 4.6 4.6 4.6
4.6 10.8 16.3 11.8 14.6 16.3 17.6 17.7 17.4 17.6 18.4 17.4 16.7 16.0 14.0 13.0 11.5 9.1 8.6 7.2 7.8 4.4 2.6 1.8 1.4 2.1 1.3 1.7 2.4 0.5 0.5 0.4 0.3 2.5 1.7 4.4 4.8 5.7
16.9 18.6 19.0 18.5 17.3 16.5 16.1 15.3 13.0 12.1 10.5 9.3 8.2 7.2 7.0 6.1 5.5 3.6 3.3 4.6 4.0 2.6 1.9 1.7 3.5 3.1 3.0 1.6 0.9 1.7 0.6 0.4 0.2 0.3 0.8 4.5 5.5 7.4
14.2 11.6 14.5 13.5 11.7 9.9 9.0 8.4 8.2 6.8 4.0 4.8 4.9 3.8 2.1 1.7 2.1 1.5 1.2 0.8 1.1 0.7 0.5 1.4 2.1 4.2 6.2 5.1 1.9 0.2 2.6 0.7 0.5 0.6 0.1 2.3 5.5 5.0
7.4 7.1 7.6 6.3 5.0 4.5 4.5 4.1 3.9 2.5 2.1 1.2 1.7 1.5 1.9 2.3 2.1 1.3 1.0 2.1 1.5 0.5 0.4 0.3 0.4 1.3 6.2 9.5 8.0 0.9 0.6 5.1 1.8 1.0 0.8 1.6 1.0 2.5
5.5 5.3 4.5 4.5 4.6 4.3 3.4 3.2 3.6 3.7 1.5 4.3 3.6 4.5 4.9 5.2 4.1 2.5 4.3 3.5 3.3 3.0 1.9 0.5 0.1 1.1 1.9 2.7 6.2 2.7 0.7 0.4 1.0 1.0 2.4 3.5 1.4 3.0
4.9 4.7 3.1 3.6 2.9 2.7 3.1 3.0 3.1 2.9 3.3 3.2 3.2 2.1 2.7 2.6 3.2 2.1 2.4 2.6 2.1 2.1 1.1 0.5 0.4 1.2 2.0 2.6 2.9 2.9 0.8 1.2 0.1 0.2 1.5 3.0 5.6 8.5
3.2 2.4 2.5 2.6 2.2 2.1 2.3 2.4 2.2 2.0 2.4 2.9 2.9 2.5 2.3 3.1 2.3 2.3 1.9 1.7 2.1 1.5 1.2 1.9 1.8 1.7 1.7 1.1 1.3 3.2 1.3 2.0 0.4 1.9 1.4 0.9 2.4 1.3

GFSNE_prec_kuchsnow_108.txt.gz
Snowfall_Accumulation
0.0 0.0 0.0 0.0 0.0 0.0 0.0 0.0 2.4 3.9 0.4 0.0 0.0 0.0 0.0 0.0 0.0 0.0 0.0 0.0 0.0 0.0 0.0 0.0 0.0 0.0 0.0 0.0 0.0 0.0 0.0 0.0 0.0 0.0 0.0 0.0 0.0 0.0
0.0 0.0 0.0 0.0 0.0 0.0 0.0 0.0 0.2 0.8 0.8 0.0 0.0 0.0 0.0 0.0 0.0 0.0 0.0 0.0 0.0 0.0 0.0 0.0 0.0 0.0 0.0 0.0 0.0 0.0 0.0 0.0 0.0 0.0 0.0 0.0 0.0 0.0
0.0 0.0 0.0 0.0 0.0 0.0 0.0 0.0 0.0 0.0 0.2 0.0 0.0 0.0 0.0 0.0 0.0 0.0 0.0 0.0 0.0 0.0 0.0 0.0 0.0 0.0 0.0 0.0 0.0 0.0 0.0 0.0 0.0 0.0 0.0 0.0 0.0 0.0
0.0 0.0 0.0 0.0 0.0 0.0 0.0 0.0 0.0 0.0 0.0 0.0 0.0 0.0 0.0 0.0 0.0 0.0 0.0 0.0 0.0 0.0 0.0 0.0 0.0 0.0 0.0 0.0 0.0 0.0 0.0 0.0 0.0 0.0 0.0 0.0 0.0 0.0
0.0 0.0 0.0 0.0 0.0 0.0 0.0 0.0 0.0 0.0 0.0 0.2 0.1 0.0 0.0 0.0 0.0 0.0 0.0 0.0 0.0 0.0 0.0 0.0 0.0 0.0 0.0 0.0 0.0 0.0 0.0 0.0 0.0 0.0 0.0 0.0 0.0 0.0
0.0 0.0 0.0 0.0 0.0 0.0 0.0 0.0 0.0 0.1 0.1 0.2 0.1 0.2 0.1 0.0 0.0 0.1 0.0 0.0 0.0 0.0 0.0 0.0 0.0 0.0 0.0 0.0 0.0 0.0 0.0 0.0 0.0 0.0 0.0 0.0 0.0 0.0
0.0 0.0 0.0 0.0 0.0 0.0 0.0 0.1 0.1 0.5 0.6 0.6 0.4 0.2 0.1 0.0 0.2 0.2 0.4 0.1 0.0 0.0 0.0 0.0 0.0 0.0 0.0 0.0 0.0 0.0 0.0 0.0 0.0 0.0 0.0 0.0 0.0 0.0
0.0 0.0 0.0 0.0 0.0 0.0 0.0 0.1 0.2 1.0 1.5 1.2 0.4 0.5 0.2 0.4 0.4 0.4 0.4 0.5 0.5 0.0 0.2 0.1 0.0 0.0 0.0 0.4 0.0 0.1 0.0 0.0 0.1 0.0 0.0 0.0 0.0 0.2
0.0 0.0 0.0 0.0 0.0 0.0 0.0 0.0 0.0 0.1 0.8 1.0 1.5 0.6 0.7 0.3 0.3 0.2 0.8 1.8 1.4 0.0 0.1 0.3 0.0 0.1 0.0 0.0 0.0 0.0 0.0 0.0 0.0 0.0 0.0 0.0 0.0 0.0
0.0 0.0 0.0 0.0 0.0 0.1 1.1 0.2 0.1 0.0 0.0 0.1 0.3 0.1 0.0 0.1 0.1 0.3 0.9 1.4 0.1 0.6 0.4 1.6 0.8 0.8 0.4 0.0 0.0 0.0 0.0 0.0 0.0 0.0 0.0 0.0 0.1 0.0
0.0 0.0 0.0 0.0 0.1 0.7 0.6 0.5 0.1 0.0 0.0 0.0 0.9 0.5 0.6 0.2 1.4 2.2 1.8 3.4 2.8 0.9 0.5 1.3 0.7 0.8 0.4 1.2 0.7 0.3 0.1 0.6 0.7 0.4 0.7 2.0 2.3 2.6
0.1 0.0 0.0 0.2 1.3 1.0 1.5 1.1 1.1 0.3 1.0 1.1 0.7 0.3 1.3 0.9 0.8 1.0 1.4 4.4 3.8 3.1 1.1 2.3 0.5 2.3 6.4 6.8 6.7 5.8 5.2 4.1 3.9 3.0 2.9 2.9 2.7 2.4
0.1 0.1 0.1 2.0 1.5 1.1 0.8 1.1 1.6 1.7 1.1 0.8 0.6 1.3 1.0 1.1 1.0 0.5 1.1 2.8 4.6 2.9 3.7 10.8 14.6 13.2 15.3 13.9 8.8 7.0 5.6 5.2 4.1 3.1 2.5 2.0 1.7 1.6
0.8 1.0 2.7 1.6 0.8 0.5 2.0 2.4 1.4 1.3 2.0 3.0 2.9 3.0 7.9 5.2 5.6 6.8 7.6 7.9 8.7 10.7 11.6 10.8 15.0 11.8 11.6 11.4 8.8 5.7 4.4 3.5 3.5 3.4 3.6 2.6 1.6 0.4
4.1 3.9 3.3 2.3 3.0 3.1 3.1 2.5 2.3 4.3 4.8 7.8 15.0 15.3 17.9 16.3 14.4 12.7 10.2 9.2 8.7 8.4 7.8 7.9 8.2 7.8 8.0 8.9 6.8 5.0 3.9 2.3 1.6 1.6 3.1 2.5 3.2 2.3
1.8 2.0 2.6 2.2 2.0 6.4 7.6 4.3 7.4 15.2 16.8 20.3 19.5 19.6 16.3 14.6 14.3 12.9 11.1 10.9 11.1 8.5 5.8 5.0 4.0 4.6 5.3 3.2 3.2 2.1 1.1 2.0 0.2 0.7 2.3 4.6 4.6 4.6
6.1 12.1 17.3 12.3 14.9 16.3 17.6 17.7 17.4 17.6 18.4 17.4 16.7 16.0 14.0 13.0 11.5 9.1 8.6 7.2 7.8 4.4 2.6 1.8 1.4 2.1 1.3 1.7 2.4 0.5 0.5 0.4 0.3 2.5 1.7 4.4 4.8 5.7
17.5 19.4 20.0 19.5 18.0 17.0 16.3 15.4 13.0 12.1 10.5 9.3 8.2 7.2 7.0 6.1 5.5 3.6 3.3 4.6 4.0 2.6 1.9 1.7 3.5 3.1 3.0 1.6 0.9 1.7 0.6 0.4 0.2 0.3 0.8 4.5 5.5 7.4
14.2 11.6 14.5 13.5 11.7 9.9 9.0 8.4 8.2 6.8 4.0 4.8 4.9 3.8 2.1 1.7 2.1 1.5 1.2 0.8 1.1 0.7 0.5 1.4 2.1 4.2 6.2 5.1 1.9 0.2 2.6 0.7 0.5 0.6 0.1 2.3 5.5 5.0
7.4 7.1 7.6 6.3 5.0 4.5 4.5 4.1 3.9 2.5 2.1 1.2 1.7 1.5 1.9 2.3 2.1 1.3 1.0 2.1 1.5 0.5 0.4 0.3 0.4 1.3 6.2 9.5 8.0 0.9 0.6 5.1 1.8 1.0 0.8 1.6 1.0 2.5
5.5 5.3 4.5 4.5 4.6 4.3 3.4 3.2 3.6 3.7 1.5 4.3 3.6 4.5 4.9 5.2 4.1 2.5 4.3 3.5 3.3 3.0 1.9 0.5 0.1 1.1 1.9 2.7 6.2 2.7 0.7 0.4 1.0 1.0 2.4 3.5 1.4 3.0
4.9 4.7 3.1 3.6 2.9 2.7 3.1 3.0 3.1 2.9 3.3 3.2 3.2 2.1 2.7 2.6 3.2 2.1 2.4 2.6 2.1 2.1 1.1 0.5 0.4 1.2 2.0 2.6 2.9 2.9 0.8 1.2 0.1 0.2 1.5 3.0 5.7 8.5
3.2 2.4 2.5 2.6 2.2 2.1 2.3 2.4 2.2 2.0 2.4 2.9 2.9 2.5 2.3 3.1 2.3 2.3 1.9 1.7 2.1 1.5 1.2 1.9 1.8 1.7 1.7 1.1 1.3 3.2 1.3 2.0 0.4 1.9 1.4 0.9 2.4 1.3

GFSNE_prec_kuchsnow_111.txt.gz
Snowfall_Accumulation
0.0 0.0 0.0 0.0 0.0 0.0 0.0 0.0 2.4 3.9 0.4 0.0 0.0 0.0 0.0 0.0 0.0 0.0 0.0 0.0 0.0 0.0 0.0 0.0 0.0 0.0 0.0 0.0 0.0 0.0 0.0 0.0 0.0 0.0 0.0 0.0 0.0 0.0
0.0 0.0 0.0 0.0 0.0 0.0 0.0 0.0 0.2 0.8 0.8 0.0 0.0 0.0 0.0 0.0 0.0 0.0 0.0 0.0 0.0 0.0 0.0 0.0 0.0 0.0 0.0 0.0 0.0 0.0 0.0 0.0 0.0 0.0 0.0 0.0 0.0 0.0
0.0 0.0 0.0 0.0 0.0 0.0 0.0 0.0 0.0 0.0 0.2 0.0 0.0 0.0 0.0 0.0 0.0 0.0 0.0 0.0 0.0 0.0 0.0 0.0 0.0 0.0 0.0 0.0 0.0 0.0 0.0 0.0 0.0 0.0 0.0 0.0 0.0 0.0
0.0 0.0 0.0 0.0 0.0 0.0 0.0 0.0 0.0 0.0 0.0 0.0 0.0 0.0 0.0 0.0 0.0 0.0 0.0 0.0 0.0 0.0 0.0 0.0 0.0 0.0 0.0 0.0 0.0 0.0 0.0 0.0 0.0 0.0 0.0 0.0 0.0 0.0
0.0 0.0 0.0 0.0 0.0 0.0 0.0 0.0 0.0 0.0 0.0 0.2 0.1 0.0 0.0 0.0 0.0 0.0 0.0 0.0 0.0 0.0 0.0 0.0 0.0 0.0 0.0 0.0 0.0 0.0 0.0 0.0 0.0 0.0 0.0 0.0 0.0 0.0
0.0 0.0 0.0 0.0 0.0 0.0 0.0 0.0 0.0 0.1 0.1 0.2 0.1 0.2 0.1 0.0 0.0 0.1 0.0 0.0 0.0 0.0 0.0 0.0 0.0 0.0 0.0 0.0 0.0 0.0 0.0 0.0 0.0 0.0 0.0 0.0 0.0 0.0
0.0 0.0 0.0 0.0 0.0 0.0 0.0 0.1 0.1 0.5 0.6 0.6 0.4 0.2 0.1 0.0 0.2 0.2 0.4 0.1 0.0 0.0 0.0 0.0 0.0 0.0 0.0 0.0 0.0 0.0 0.0 0.0 0.0 0.0 0.0 0.0 0.0 0.0
0.0 0.0 0.0 0.0 0.0 0.0 0.0 0.1 0.2 1.0 1.5 1.2 0.4 0.5 0.2 0.4 0.4 0.4 0.4 0.5 0.5 0.0 0.2 0.1 0.0 0.0 0.0 0.4 0.0 0.1 0.0 0.0 0.1 0.0 0.0 0.0 0.0 0.2
0.0 0.0 0.0 0.0 0.0 0.0 0.0 0.0 0.0 0.1 0.8 1.0 1.5 0.6 0.7 0.3 0.3 0.2 0.8 1.8 1.4 0.0 0.1 0.3 0.0 0.1 0.0 0.0 0.0 0.0 0.0 0.0 0.0 0.0 0.0 0.0 0.0 0.0
0.0 0.0 0.0 0.0 0.0 0.1 1.1 0.2 0.1 0.0 0.0 0.1 0.3 0.1 0.0 0.1 0.1 0.3 0.9 1.4 0.1 0.6 0.4 1.6 0.8 0.8 0.4 0.0 0.0 0.0 0.0 0.0 0.0 0.0 0.0 0.0 0.1 0.0
0.0 0.0 0.0 0.0 0.1 0.7 0.6 0.5 0.1 0.0 0.0 0.0 0.9 0.5 0.6 0.2 1.4 2.2 1.8 3.4 2.8 0.9 0.5 1.3 0.7 0.8 0.4 1.2 0.7 0.3 0.1 0.6 0.7 0.4 0.7 2.0 2.3 2.6
0.1 0.0 0.0 0.2 1.3 1.0 1.5 1.1 1.1 0.3 1.0 1.1 0.7 0.3 1.3 0.9 0.8 1.0 1.4 4.4 3.8 3.1 1.1 2.3 0.5 2.3 6.4 6.8 6.7 5.8 5.2 4.1 3.9 3.0 2.9 2.9 2.7 2.4
0.1 0.1 0.1 2.0 1.5 1.1 0.8 1.1 1.6 1.7 1.1 0.8 0.6 1.3 1.0 1.1 1.0 0.5 1.1 2.8 4.6 2.9 3.7 10.8 14.6 13.2 15.3 13.9 8.8 7.0 5.6 5.2 4.1 3.1 2.5 2.0 1.7 1.6
0.8 1.0 2.7 1.6 0.8 0.5 2.0 2.4 1.4 1.8 2.0 3.0 2.9 3.0 7.9 5.2 5.6 6.8 7.6 7.9 8.7 10.7 11.6 10.8 15.0 11.8 11.6 11.4 8.8 5.7 4.4 3.5 3.5 3.4 3.6 2.6 1.6 0.4
5.6 5.3 4.9 4.4 5.4 5.0 4.8 3.7 3.1 5.0 5.3 8.2 15.4 15.7 17.9 16.3 14.4 12.7 10.2 9.2 8.7 8.4 7.8 7.9 8.2 7.8 8.0 8.9 6.8 5.0 3.9 2.3 1.6 1.6 3.1 2.5 3.2 2.3
2.9 3.3 3.9 3.6 3.4 8.0 9.4 6.0 8.6 15.8 17.1 20.4 19.5 19.6 16.3 14.6 14.3 12.9 11.1 10.9 11.1 8.5 5.8 5.0 4.0 4.6 5.3 3.2 3.2 2.1 1.1 2.0 0.2 0.7 2.3 4.6 4.6 4.6
6.7 12.8 18.1 13.3 15.8 17.1 18.2 18.3 17.8 17.9 18.5 17.5 16.7 16.0 14.0 13.0 11.5 9.1 8.6 7.2 7.8 4.4 2.6 1.8 1.4 2.1 1.3 1.7 2.4 0.5 0.5 0.4 0.3 2.5 1.7 4.4 4.8 5.7
17.7 19.8 20.5 20.1 18.8 18.1 17.4 16.3 13.7 12.6 10.8 9.5 8.4 7.3 7.0 6.1 5.5 3.6 3.4 4.8 4.2 2.7 2.0 1.8 3.5 3.1 3.0 1.6 0.9 1.7 0.6 0.4 0.2 0.3 0.8 4.5 5.5 7.4
14.2 11.6 14.5 13.5 11.7 9.9 9.0 8.4 8.2 6.8 4.0 4.8 4.9 3.8 2.1 1.7 2.1 1.5 1.2 0.8 1.1 0.7 0.5 1.4 2.1 4.2 6.2 5.1 1.9 0.2 2.6 0.7 0.5 0.6 0.1 2.3 5.5 5.0
7.4 7.1 7.6 6.3 5.0 4.5 4.5 4.1 3.9 2.5 2.1 1.2 1.7 1.5 1.9 2.3 2.1 1.3 1.0 2.1 1.5 0.5 0.4 0.3 0.4 1.3 6.2 9.5 8.0 0.9 0.6 5.1 1.8 1.0 0.8 1.6 1.0 2.5
5.5 5.3 4.5 4.5 4.6 4.3 3.4 3.2 3.6 3.7 1.5 4.3 3.6 4.5 4.9 5.2 4.1 2.5 4.3 3.5 3.3 3.0 1.9 0.5 0.1 1.1 1.9 2.7 6.2 2.7 0.7 0.4 1.0 1.0 2.4 3.5 1.4 3.0
4.9 4.7 3.1 3.6 2.9 2.7 3.1 3.0 3.1 2.9 3.3 3.2 3.2 2.1 2.7 2.6 3.2 2.1 2.4 2.6 2.1 2.1 1.1 0.5 0.4 1.2 2.0 2.6 2.9 2.9 0.8 1.2 0.1 0.2 1.5 3.0 5.8 8.6
3.2 2.4 2.5 2.6 2.2 2.1 2.3 2.4 2.2 2.0 2.4 2.9 2.9 2.5 2.3 3.1 2.3 2.3 1.9 1.7 2.1 1.5 1.2 1.9 1.8 1.7 1.7 1.1 1.3 3.2 1.3 2.0 0.4 1.9 1.4 0.9 2.4 1.3

GFSNE_prec_kuchsnow_114.txt.gz
Snowfall_Accumulation
0.0 0.0 0.0 0.0 0.0 0.0 0.0 0.0 2.4 3.9 0.4 0.0 0.0 0.0 0.0 0.0 0.0 0.0 0.0 0.0 0.0 0.0 0.0 0.0 0.0 0.0 0.0 0.0 0.0 0.0 0.0 0.0 0.0 0.0 0.0 0.0 0.0 0.0
0.0 0.0 0.0 0.0 0.0 0.0 0.0 0.0 0.2 0.8 0.8 0.0 0.0 0.0 0.0 0.0 0.0 0.0 0.0 0.0 0.0 0.0 0.0 0.0 0.0 0.0 0.0 0.0 0.0 0.0 0.0 0.0 0.0 0.0 0.0 0.0 0.0 0.0
0.0 0.0 0.0 0.0 0.0 0.0 0.0 0.0 0.0 0.0 0.2 0.0 0.0 0.0 0.0 0.0 0.0 0.0 0.0 0.0 0.0 0.0 0.0 0.0 0.0 0.0 0.0 0.0 0.0 0.0 0.0 0.0 0.0 0.0 0.0 0.0 0.0 0.0
0.0 0.0 0.0 0.0 0.0 0.0 0.0 0.0 0.0 0.0 0.0 0.0 0.0 0.0 0.0 0.0 0.0 0.0 0.0 0.0 0.0 0.0 0.0 0.0 0.0 0.0 0.0 0.0 0.0 0.0 0.0 0.0 0.0 0.0 0.0 0.0 0.0 0.0
0.0 0.0 0.0 0.0 0.0 0.0 0.0 0.0 0.0 0.0 0.0 0.2 0.1 0.0 0.0 0.0 0.0 0.0 0.0 0.0 0.0 0.0 0.0 0.0 0.0 0.0 0.0 0.0 0.0 0.0 0.0 0.0 0.0 0.0 0.0 0.0 0.0 0.0
0.0 0.0 0.0 0.0 0.0 0.0 0.0 0.0 0.0 0.1 0.1 0.2 0.1 0.2 0.1 0.0 0.0 0.1 0.0 0.0 0.0 0.0 0.0 0.0 0.0 0.0 0.0 0.0 0.0 0.0 0.0 0.0 0.0 0.0 0.0 0.0 0.0 0.0
0.0 0.0 0.0 0.0 0.0 0.0 0.0 0.1 0.1 0.5 0.6 0.6 0.4 0.2 0.1 0.0 0.2 0.2 0.4 0.1 0.0 0.0 0.0 0.0 0.0 0.0 0.0 0.0 0.0 0.0 0.0 0.0 0.0 0.0 0.0 0.0 0.0 0.0
0.0 0.0 0.0 0.0 0.0 0.0 0.0 0.1 0.2 1.0 1.5 1.2 0.4 0.5 0.2 0.4 0.4 0.4 0.4 0.5 0.5 0.0 0.2 0.1 0.0 0.0 0.0 0.4 0.0 0.1 0.0 0.0 0.1 0.0 0.0 0.0 0.0 0.2
0.0 0.0 0.0 0.0 0.0 0.0 0.0 0.0 0.0 0.1 0.8 1.0 1.5 0.6 0.7 0.3 0.3 0.2 0.8 1.8 1.4 0.0 0.1 0.3 0.0 0.1 0.0 0.0 0.0 0.0 0.0 0.0 0.0 0.0 0.0 0.0 0.0 0.0
0.0 0.0 0.0 0.0 0.0 0.1 1.1 0.2 0.1 0.0 0.0 0.1 0.3 0.1 0.0 0.1 0.1 0.3 0.9 1.4 0.1 0.6 0.4 1.6 0.8 0.8 0.4 0.0 0.0 0.0 0.0 0.0 0.0 0.0 0.0 0.0 0.1 0.0
0.0 0.0 0.0 0.0 0.1 0.7 0.6 0.5 0.1 0.0 0.0 0.0 0.9 0.5 0.6 0.2 1.4 2.2 1.8 3.4 2.8 0.9 0.5 1.3 0.7 0.8 0.4 1.2 0.7 0.3 0.1 0.6 0.7 0.4 0.7 2.0 2.3 2.6
0.1 0.0 0.0 0.2 1.3 1.0 1.5 1.1 1.1 0.3 1.0 1.1 0.7 0.3 1.3 0.9 0.8 1.0 1.4 4.4 3.8 3.1 1.1 2.3 0.5 2.3 6.4 6.8 6.7 5.8 5.3 4.1 3.9 3.0 2.9 2.9 2.7 2.4
0.1 0.1 0.1 2.0 1.5 1.1 0.8 1.1 1.6 1.7 1.1 0.8 0.6 1.3 1.0 1.1 1.0 0.5 1.1 2.8 4.6 2.9 3.7 10.8 14.6 13.2 16.1 14.5 9.1 7.1 5.6 5.2 4.1 3.1 2.5 2.0 1.7 1.6
2.6 3.1 2.7 1.6 0.8 0.5 2.0 2.4 1.4 1.8 2.0 3.0 2.9 3.0 7.9 5.2 5.6 6.8 7.6 7.9 8.7 10.7 12.0 10.8 15.5 12.5 12.2 11.8 9.1 5.7 4.4 3.5 3.5 3.4 3.6 2.6 1.6 0.4
8.9 8.0 7.6 6.9 7.2 6.5 6.4 5.0 4.1 5.9 6.4 9.5 16.7 16.9 18.8 16.7 14.7 12.9 10.3 9.3 8.9 8.4 7.8 7.9 8.2 7.8 8.0 8.9 6.8 5.0 3.9 2.3 1.6 1.6 3.1 2.5 3.2 2.3
6.3 6.4 6.5 5.8 5.4 10.1 11.4 8.0 10.7 17.9 18.8 21.8 20.6 20.6 17.0 15.1 14.7 13.1 11.3 11.0 11.2 8.6 5.8 5.0 4.0 4.6 5.3 3.2 3.2 2.1 1.1 2.0 0.2 0.7 2.3 4.6 4.6 4.6
7.7 13.9 19.3 14.4 16.7 18.0 19.2 19.4 19.2 19.4 20.2 19.1 18.1 17.1 14.7 13.4 11.8 9.4 8.8 7.3 7.8 4.4 2.6 1.9 1.4 2.1 1.3 1.7 2.4 0.5 0.5 0.4 0.3 2.5 1.7 4.4 4.8 5.7
17.7 19.8 20.5 20.1 19.2 18.5 17.9 16.9 14.3 13.3 11.7 10.3 9.1 7.9 7.6 6.6 5.8 3.8 3.6 5.0 4.3 2.7 2.0 1.8 3.5 3.1 3.0 1.6 0.9 1.7 0.6 0.4 0.2 0.3 0.8 4.5 5.5 7.4
14.2 11.6 14.5 13.5 11.7 9.9 9.0 8.4 8.2 6.8 4.0 4.8 4.9 3.8 2.1 1.7 2.1 1.5 1.2 0.8 1.1 0.7 0.5 1.4 2.1 4.2 6.2 5.1 1.9 0.2 2.6 0.7 0.5 0.6 0.1 2.3 5.5 5.0
7.4 7.1 7.6 6.3 5.0 4.5 4.5 4.1 3.9 2.5 2.1 1.2 1.7 1.5 1.9 2.3 2.1 1.3 1.0 2.1 1.5 0.5 0.4 0.3 0.4 1.3 6.2 9.5 8.0 0.9 0.6 5.1 1.8 1.0 0.8 1.6 1.0 2.5
5.5 5.3 4.5 4.5 4.6 4.3 3.4 3.2 3.6 3.7 1.5 4.3 3.6 4.5 4.9 5.2 4.1 2.5 4.3 3.5 3.3 3.0 1.9 0.5 0.1 1.1 1.9 2.7 6.2 2.7 0.7 0.4 1.0 1.0 2.4 3.5 1.4 3.0
4.9 4.7 3.1 3.6 2.9 2.7 3.1 3.0 3.1 2.9 3.3 3.2 3.2 2.1 2.7 2.6 3.2 2.1 2.4 2.6 2.1 2.1 1.1 0.5 0.4 1.2 2.0 2.6 2.9 2.9 0.8 1.2 0.1 0.2 1.5 3.0 5.8 8.6
3.2 2.4 2.5 2.6 2.2 2.1 2.3 2.4 2.2 2.0 2.4 2.9 2.9 2.5 2.3 3.1 2.3 2.3 1.9 1.7 2.1 1.5 1.2 1.9 1.8 1.7 1.7 1.1 1.3 3.2 1.3 2.0 0.4 1.9 1.4 0.9 2.4 1.3

GFSNE_prec_kuchsnow_117.txt.gz
Snowfall_Accumulation
0.0 0.0 0.0 0.0 0.0 0.0 0.0 0.0 2.4 3.9 0.4 0.0 0.0 0.0 0.0 0.0 0.0 0.0 0.0 0.0 0.0 0.0 0.0 0.0 0.0 0.0 0.0 0.0 0.0 0.0 0.0 0.0 0.0 0.0 0.0 0.0 0.0 0.0
0.0 0.0 0.0 0.0 0.0 0.0 0.0 0.0 0.2 0.8 0.8 0.0 0.0 0.0 0.0 0.0 0.0 0.0 0.0 0.0 0.0 0.0 0.0 0.0 0.0 0.0 0.0 0.0 0.0 0.0 0.0 0.0 0.0 0.0 0.0 0.0 0.0 0.0
0.0 0.0 0.0 0.0 0.0 0.0 0.0 0.0 0.0 0.0 0.2 0.0 0.0 0.0 0.0 0.0 0.0 0.0 0.0 0.0 0.0 0.0 0.0 0.0 0.0 0.0 0.0 0.0 0.0 0.0 0.0 0.0 0.0 0.0 0.0 0.0 0.0 0.0
0.0 0.0 0.0 0.0 0.0 0.0 0.0 0.0 0.0 0.0 0.0 0.0 0.0 0.0 0.0 0.0 0.0 0.0 0.0 0.0 0.0 0.0 0.0 0.0 0.0 0.0 0.0 0.0 0.0 0.0 0.0 0.0 0.0 0.0 0.0 0.0 0.0 0.0
0.0 0.0 0.0 0.0 0.0 0.0 0.0 0.0 0.0 0.0 0.0 0.2 0.1 0.0 0.0 0.0 0.0 0.0 0.0 0.0 0.0 0.0 0.0 0.0 0.0 0.0 0.0 0.0 0.0 0.0 0.0 0.0 0.0 0.0 0.0 0.0 0.0 0.0
0.0 0.0 0.0 0.0 0.0 0.0 0.0 0.0 0.0 0.1 0.1 0.2 0.1 0.2 0.1 0.0 0.0 0.1 0.0 0.0 0.0 0.0 0.0 0.0 0.0 0.0 0.0 0.0 0.0 0.0 0.0 0.0 0.0 0.0 0.0 0.0 0.0 0.0
0.0 0.0 0.0 0.0 0.0 0.0 0.0 0.1 0.1 0.5 0.6 0.6 0.4 0.2 0.1 0.0 0.2 0.2 0.4 0.1 0.0 0.0 0.0 0.0 0.0 0.0 0.0 0.0 0.0 0.0 0.0 0.0 0.0 0.0 0.0 0.0 0.0 0.0
0.0 0.0 0.0 0.0 0.0 0.0 0.0 0.1 0.2 1.0 1.5 1.2 0.4 0.5 0.2 0.4 0.4 0.4 0.4 0.5 0.5 0.0 0.2 0.1 0.0 0.0 0.0 0.4 0.0 0.1 0.0 0.0 0.1 0.0 0.0 0.0 0.0 0.2
0.0 0.0 0.0 0.0 0.0 0.0 0.0 0.0 0.0 0.1 0.8 1.0 1.5 0.6 0.7 0.3 0.3 0.2 0.8 1.8 1.4 0.0 0.1 0.3 0.0 0.1 0.0 0.0 0.0 0.0 0.0 0.0 0.0 0.0 0.0 0.0 0.0 0.0
0.0 0.0 0.0 0.0 0.0 0.1 1.1 0.2 0.1 0.0 0.0 0.1 0.3 0.1 0.0 0.1 0.1 0.3 0.9 1.4 0.1 0.6 0.4 1.6 0.8 0.8 0.4 0.0 0.0 0.0 0.0 0.0 0.0 0.0 0.0 0.0 0.1 0.0
0.0 0.0 0.0 0.0 0.1 0.7 0.6 0.5 0.1 0.0 0.0 0.0 0.9 0.5 0.6 0.2 1.4 2.2 1.8 3.4 2.8 0.9 0.5 1.3 0.7 0.8 0.4 1.2 0.7 0.3 0.1 0.6 0.7 0.4 0.7 2.0 2.3 2.6
0.1 0.0 0.0 0.2 1.3 1.0 1.5 1.1 1.1 0.3 1.0 1.1 0.7 0.3 1.3 0.9 0.8 1.0 1.4 4.4 3.8 3.1 1.1 2.3 0.5 2.3 6.4 6.8 6.7 5.8 5.3 4.1 3.9 3.0 2.9 2.9 2.7 2.4
0.1 0.1 0.1 2.0 1.5 1.1 0.8 1.1 1.6 1.7 1.1 0.8 0.6 1.3 1.0 1.1 1.0 0.5 1.1 2.8 4.6 2.9 3.7 10.8 14.6 13.2 16.1 14.5 9.1 7.1 5.6 5.4 4.3 3.1 2.5 2.0 1.7 1.6
4.5 4.4 4.1 1.6 2.0 0.5 2.0 2.4 1.4 1.8 2.0 3.0 2.9 3.0 7.9 5.2 5.6 6.8 7.6 7.9 8.7 10.7 12.0 10.8 15.5 13.6 13.5 13.4 10.5 7.1 5.3 3.7 3.5 3.4 3.6 2.6 1.6 0.4
10.5 10.1 9.8 8.8 9.1 8.5 8.9 7.4 6.3 7.4 7.9 10.7 17.8 17.6 19.2 16.7 14.7 12.9 10.3 9.3 8.9 8.4 10.0 10.2 10.4 9.9 9.7 10.5 8.0 5.8 4.2 2.3 1.6 1.6 3.1 2.5 3.2 2.3
6.3 6.4 6.5 7.6 7.4 12.1 13.5 10.2 13.1 20.6 21.6 24.5 23.1 22.8 18.7 16.4 15.7 14.1 12.2 11.9 12.0 9.5 6.6 5.7 4.8 5.4 6.1 3.6 3.5 2.2 1.1 2.0 0.2 0.7 2.3 4.6 4.6 4.6
7.7 13.9 19.3 14.4 16.7 19.6 21.0 21.4 21.1 21.2 21.9 20.8 19.8 18.7 16.1 14.4 12.7 10.0 9.4 8.0 8.6 5.2 3.3 2.3 1.6 2.2 1.3 1.7 2.4 0.5 0.5 0.4 0.3 2.5 1.7 4.4 4.8 5.7
17.7 19.8 20.5 20.1 19.2 19.2 18.9 18.1 15.6 14.6 12.7 11.2 9.9 8.6 8.3 7.2 6.3 4.0 3.7 5.0 4.5 2.7 2.0 1.8 3.5 3.1 3.0 1.6 0.9 1.7 0.6 0.4 0.2 0.3 0.8 4.5 5.5 7.4
14.2 11.6 14.5 13.5 11.7 9.9 9.0 8.4 8.5 7.3 4.5 5.3 5.2 4.1 2.2 1.7 2.1 1.5 1.2 0.8 1.1 0.7 0.5 1.4 2.1 4.2 6.2 5.1 1.9 0.2 2.6 0.7 0.5 0.6 0.1 2.3 5.5 5.0
7.4 7.1 7.6 6.3 5.0 4.5 4.5 4.1 3.9 2.5 2.1 1.2 1.7 1.5 1.9 2.3 2.1 1.3 1.0 2.1 1.5 0.5 0.4 0.3 0.4 1.3 6.2 9.5 8.0 0.9 0.6 5.1 1.8 1.0 0.8 1.6 1.0 2.5
5.5 5.3 4.5 4.5 4.6 4.3 3.4 3.2 3.6 3.7 1.5 4.3 3.6 4.5 4.9 5.2 4.1 2.5 4.3 3.5 3.3 3.0 1.9 0.5 0.1 1.1 1.9 2.7 6.2 2.7 0.7 0.4 1.0 1.0 2.4 3.5 1.4 3.0
4.9 4.7 3.1 3.6 2.9 2.7 3.1 3.0 3.1 2.9 3.3 3.2 3.2 2.1 2.7 2.6 3.2 2.1 2.4 2.6 2.1 2.1 1.1 0.5 0.4 1.2 2.0 2.6 2.9 2.9 0.8 1.2 0.1 0.2 1.5 3.0 5.8 8.6
3.2 2.4 2.5 2.6 2.2 2.1 2.3 2.4 2.2 2.0 2.4 2.9 2.9 2.5 2.3 3.1 2.3 2.3 1.9 1.7 2.1 1.5 1.2 1.9 1.8 1.7 1.7 1.1 1.3 3.2 1.3 2.0 0.4 1.9 1.4 0.9 2.4 1.3

GFSNE_prec_kuchsnow_123.txt.gz
Snowfall_Accumulation
0.0 0.0 0.0 0.0 0.0 0.0 0.0 0.0 2.4 3.9 0.4 0.0 0.0 0.0 0.0 0.0 0.0 0.0 0.0 0.0 0.0 0.0 0.0 0.0 0.0 0.0 0.0 0.0 0.0 0.0 0.0 0.0 0.0 0.0 0.0 0.0 0.0 0.0
0.0 0.0 0.0 0.0 0.0 0.0 0.0 0.0 0.2 0.8 0.8 0.0 0.0 0.0 0.0 0.0 0.0 0.0 0.0 0.0 0.0 0.0 0.0 0.0 0.0 0.0 0.0 0.0 0.0 0.0 0.0 0.0 0.0 0.0 0.0 0.0 0.0 0.0
0.0 0.0 0.0 0.0 0.0 0.0 0.0 0.0 0.0 0.0 0.2 0.0 0.0 0.0 0.0 0.0 0.0 0.0 0.0 0.0 0.0 0.0 0.0 0.0 0.0 0.0 0.0 0.0 0.0 0.0 0.0 0.0 0.0 0.0 0.0 0.0 0.0 0.0
0.0 0.0 0.0 0.0 0.0 0.0 0.0 0.0 0.0 0.0 0.0 0.0 0.0 0.0 0.0 0.0 0.0 0.0 0.0 0.0 0.0 0.0 0.0 0.0 0.0 0.0 0.0 0.0 0.0 0.0 0.0 0.0 0.0 0.0 0.0 0.0 0.0 0.0
0.0 0.0 0.0 0.0 0.0 0.0 0.0 0.0 0.0 0.0 0.0 0.2 0.1 0.0 0.0 0.0 0.0 0.0 0.0 0.0 0.0 0.0 0.0 0.0 0.0 0.0 0.0 0.0 0.0 0.0 0.0 0.0 0.0 0.0 0.0 0.0 0.0 0.0
0.0 0.0 0.0 0.0 0.0 0.0 0.0 0.0 0.0 0.1 0.1 0.2 0.1 0.2 0.1 0.0 0.0 0.1 0.0 0.0 0.0 0.0 0.0 0.0 0.0 0.0 0.0 0.0 0.0 0.0 0.0 0.0 0.0 0.0 0.0 0.0 0.0 0.0
0.0 0.0 0.0 0.0 0.0 0.0 0.0 0.1 0.1 0.5 0.6 0.6 0.4 0.2 0.1 0.0 0.2 0.2 0.4 0.1 0.0 0.0 0.0 0.0 0.0 0.0 0.0 0.0 0.0 0.0 0.0 0.0 0.0 0.0 0.0 0.0 0.0 0.0
0.0 0.0 0.0 0.0 0.0 0.0 0.0 0.1 0.2 1.0 1.5 1.2 0.4 0.5 0.2 0.4 0.4 0.4 0.4 0.5 0.5 0.0 0.2 0.1 0.0 0.0 0.0 0.4 0.0 0.1 0.0 0.0 0.1 0.0 0.0 0.0 0.0 0.2
0.0 0.0 0.0 0.0 0.0 0.0 0.0 0.0 0.0 0.1 0.8 1.0 1.5 0.6 0.7 0.3 0.3 0.2 0.8 1.8 1.4 0.0 0.1 0.3 0.0 0.1 0.0 0.0 0.0 0.0 0.0 0.0 0.0 0.0 0.0 0.0 0.0 0.0
0.0 0.0 0.0 0.0 0.0 0.1 1.1 0.2 0.1 0.0 0.0 0.1 0.3 0.1 0.0 0.1 0.1 0.3 0.9 1.4 0.1 0.6 0.4 1.6 0.8 0.8 0.4 0.0 0.0 0.0 0.0 0.0 0.0 0.0 0.0 0.0 0.1 0.0
0.0 0.0 0.0 0.0 0.1 0.7 0.6 0.5 0.1 0.0 0.0 0.0 0.9 0.5 0.6 0.2 1.4 2.2 1.8 3.4 2.8 0.9 0.5 1.3 0.7 0.8 0.4 1.2 0.7 0.3 0.1 0.6 0.7 0.4 0.7 2.0 2.3 2.6
0.1 0.0 0.0 0.2 1.3 1.0 1.5 1.1 1.1 0.3 1.0 1.1 0.7 0.3 1.3 0.9 0.8 1.0 1.4 4.4 3.8 3.1 1.1 2.3 0.5 2.3 6.4 6.8 6.7 5.8 5.3 4.1 3.9 3.0 2.9 2.9 2.7 2.4
0.1 0.1 0.1 2.4 2.0 1.1 0.8 1.1 1.6 1.7 1.1 0.8 0.6 1.3 1.0 1.1 1.0 0.5 1.1 2.8 4.6 2.9 3.7 10.8 14.6 13.2 16.1 14.5 9.1 7.1 5.6 5.4 4.3 3.1 2.5 2.0 1.8 1.6
5.5 6.0 6.2 3.7 4.6 2.8 3.0 4.1 3.9 4.2 3.6 3.0 2.9 3.0 7.9 5.2 5.6 6.8 7.6 7.9 8.7 10.7 12.0 10.8 15.5 13.6 13.5 13.4 10.5 7.1 5.3 4.7 4.4 5.0 5.0 4.0 2.9 1.3
10.6 10.3 9.8 9.4 9.9 10.0 11.5 10.9 10.5 11.6 12.7 15.2 22.0 21.4 21.0 18.2 15.7 12.9 10.3 9.3 8.9 8.4 10.0 10.2 10.4 9.9 9.7 12.0 9.6 7.8 7.4 5.4 4.1 3.6 4.5 3.3 3.6 2.5
6.3 6.4 6.5 7.6 7.4 12.1 13.9 10.9 14.2 22.8 24.9 28.6 27.8 27.6 23.2 21.1 20.3 18.5 17.0 16.8 16.6 14.5 11.1 9.4 8.4 9.2 11.1 8.7 7.9 6.7 4.9 5.3 2.4 2.3 3.5 5.6 5.3 5.0
7.7 13.9 19.3 14.4 16.7 19.7 21.1 21.6 21.5 21.8 22.9 22.2 21.5 20.8 18.6 17.1 15.8 12.9 12.6 11.5 12.7 10.1 9.1 7.9 6.6 6.2 5.0 5.8 6.9 4.4 3.8 3.1 2.2 3.9 2.6 5.2 5.2 5.9
17.7 19.8 20.5 20.1 19.2 19.2 18.9 18.2 15.7 14.8 13.2 11.7 10.6 9.6 9.4 8.5 7.8 5.6 5.4 6.9 6.7 5.0 4.5 4.3 5.9 5.5 5.2 3.9 2.8 3.7 2.2 1.6 1.0 0.8 1.1 4.6 5.6 7.4
14.2 11.7 14.5 13.5 11.7 9.9 9.0 8.4 8.6 7.3 4.6 5.4 5.5 4.4 2.6 2.0 2.4 1.9 1.6 1.3 1.8 1.4 1.4 2.3 2.9 5.1 7.4 6.7 3.1 0.9 3.3 1.2 0.7 0.7 0.2 2.3 5.5 5.0
7.4 7.1 7.6 6.3 5.0 4.5 4.5 4.1 3.9 2.5 2.1 1.2 1.7 1.5 1.9 2.3 2.1 1.3 1.0 2.1 1.5 0.6 0.5 0.4 0.5 1.5 6.5 9.9 8.4 1.2 0.7 5.2 1.8 1.1 0.9 1.6 1.0 2.5
5.5 5.3 4.5 4.5 4.6 4.3 3.5 3.3 3.6 3.8 1.5 4.3 3.6 4.5 4.9 5.2 4.1 2.5 4.3 3.5 3.3 3.0 1.9 0.5 0.1 1.1 1.9 2.7 6.2 2.7 0.7 0.4 1.0 1.0 2.4 3.5 1.4 3.0
4.9 4.7 3.1 3.6 2.9 2.7 3.2 3.1 3.2 2.9 3.4 3.2 3.2 2.2 2.7 2.6 3.2 2.1 2.4 2.6 2.1 2.1 1.1 0.5 0.4 1.2 2.0 2.6 2.9 2.9 0.8 1.2 0.1 0.2 1.5 3.0 5.8 8.6
3.4 2.5 2.6 2.6 2.2 2.1 2.3 2.5 2.2 2.1 2.5 3.0 2.9 2.5 2.4 3.1 2.3 2.3 1.9 1.7 2.1 1.5 1.2 1.9 1.8 1.7 1.7 1.1 1.3 3.2 1.3 2.0 0.4 1.9 1.4 0.9 2.4 1.3